Regional Weather Roundup
Issued by NWS

Home | Current Version | Previous Version | Text Only | Print | Product List | Glossary Off
Versions: 1 2 3 4 5 6 7 8 9 10 11 12 13 14 15 16 17 18 19 20 21 22 23 24 25 26 27 28 29 30 31 32 33 34 35 36 37 38 39 40 41 42 43 44 45 46 47 48 49 50

000
ASUS45 KABQ 300501
RWRNM
NEW MEXICO REGIONAL WEATHER ROUNDUP
NATIONAL WEATHER SERVICE ALBUQUERQUE NM
1100 PM MDT THU SEP 29 2016

NOTE: "FAIR" MEANS FEW OR NO CLOUDS BELOW 12,000 FEET AGL WITH NO
       SIGNIFICANT WEATHER OR OBSTRUCTIONS TO VISION.

      THIS PRODUCT IS RELEASED AS TWO VERSIONS.  ONE VERSION NEAR
      THE TOP OF THE HOUR CONTAINING PRELIMINARY DATA FROM ALBUQUERQUE
      AND OTHER STATIONS.  A FINAL VERSION WITH ADDITIONAL DATA IS
      ISSUED ABOUT 10 MINUTES AFTER THE HOUR.

NMZ501-503-504-510>518-300600-
NORTHWEST PLATEAU/NORTHCENTRAL MOUNTAINS

CITY           SKY/WX    TMP DP  RH WIND       PRES   REMARKS
FARMINGTON     FAIR      55  53  93 NE3       30.38S
LOS ALAMOS     MOCLDY    58  46  64 N7        30.48S
SANTA FE       FAIR      58  49  72 E7        30.42F
TAOS           FAIR      54  39  58 SW10      30.47S
ANGEL FIRE     FAIR      48  37  64 SE6       30.53F

$$
NMZ402-403-502-505>509-300600-
WESTCENTRAL MOUNTAINS/SOUTHWEST MOUNTAINS

CITY           SKY/WX    TMP DP  RH WIND       PRES   REMARKS
GALLUP         FAIR      48  47  96 CALM      30.43R
SILVER CITY    TSTM      59  56  91 N16G24    30.38R

$$
NMZ407-409-411-412-300600-
SOUTHERN DESERTS

CITY           SKY/WX    TMP DP  RH WIND       PRES   REMARKS
DEMING         FAIR      72  50  45 E12       30.28R
LAS CRUCES     MOCLDY    71  44  37 SE10G18   30.29S
HOLLOMAN AFB   CLOUDY    73  43  34 S5        30.27R
ALAMOGORDO     FAIR      72  41  33 N3        30.29R
T OR C         CLOUDY    67  53  61 N13G22    30.35R

$$
NMZ519>523-300600-
CENTRAL VALLEYS/CENTRAL HIGHLANDS

CITY           SKY/WX    TMP DP  RH WIND       PRES   REMARKS
ALBUQUERQUE    CLOUDY    60  58  92 W7        30.40S
DOUBLE EAGLE   CLOUDY    56  55  94 SW5       30.43S
CLINES CORNERS FAIR      53  46  77 SW3       30.48F
BELEN          RAIN      60  60 100 SW9       30.43R
SOCORRO        CLOUDY    59  56  89 N5G16     30.39F

$$
NMZ524>526-539-540-300600-
SOUTHCENTRAL MOUNTAINS

CITY           SKY/WX    TMP DP  RH WIND       PRES   REMARKS
RUIDOSO        MOCLDY    55  41  58 SE5       30.50R

$$
NMZ527>531-300600-
NORTHEAST HIGHLANDS/NORTHEAST PLAINS

CITY           SKY/WX    TMP DP  RH WIND       PRES   REMARKS
LAS VEGAS      FAIR      51  35  54 S15       30.44F
RATON          FAIR      53  31  42 NW3       30.38F
CLAYTON        FAIR      51  45  79 S9        30.34F

$$
NMZ532>537-300600-
EASTCENTRAL PLAINS

CITY           SKY/WX    TMP DP  RH WIND       PRES   REMARKS
TUCUMCARI      FAIR      64  47  53 S10       30.30S
CANNON AFB     NOT AVBL
CLOVIS AIRPORT FAIR      55  46  71 S7        30.35F

$$
NMZ028-029-538-300600-
SOUTHEAST PLAINS

CITY           SKY/WX    TMP DP  RH WIND       PRES   REMARKS
ROSWELL        FAIR      62  46  55 SW6       30.32R
ARTESIA        FAIR      61  50  67 S8        30.32R
CARLSBAD       FAIR      57  51  80 SW6       30.29S
HOBBS          FAIR      57  50  77 E7        30.34S


$$




USA.gov is the U.S. government's official web portal to all federal, state and local government web resources and services.